Content
SEND FEEDBACK

Daily
Averages
Monthly
Summary
Switzerland

GENEVA, SWITZERLAND


Home > Europe > Switzerland
Elevation: 1364 feet     Latitude: 46 15N     Longitude: 006 08E

WEATHER
 
SELECT A DAY
Number of Records: 305,729;   Date Range: 7/1/96 - 7/29/14
 
SHARE

PRINT THIS DATA

[ ← Previous Day ]
WEATHER ALMANAC - MARCH 20, 2013
[ Next Day → ]
[ °C ]   °F
Weather ElementAverageHighLow
Temperature43.2 °F51.8 °F (3:20 pm)37.4 °F (3:50 am)
Dewpoint32.8 °F39.2 °F (12:50 pm)26.6 °F (10:20 pm)
Humidity65.6 %93 % (9:50 am)30 % (5:00 pm)
Barometer29.75 in30.01 in (11:00 pm)29.59 in (12:20 am)
Wind Speed8.5 mph19.6 mph (11:50 am)
Wind Gust29.9 mph (6:50 pm)
Weather ElementAverage
Visibility7.6 mi
Wind DirectionSSE (163.7 °)

Weather ElementTotal
Precipitation---
Heating Degree Days20.4 (Base 65)
Averaged from 65 records on March 20, 2013
WEATHER CONDITIONS BREAKOUT
WIND DIRECTION BREAKOUT
WEATHER BY HOUR - MARCH 20, 2013
[ °C ]   °F
Local TimeTemperatureDewpointHumidityBarometerVisibilityWind DirectionWind SpeedGust SpeedPrecipitationEventsConditions
12:20 AM41.0 °F32.0 °F70 %29.59 inVariable3.5 mphClear
12:50 AM39.2 °F32.0 °F75 %29.59 inVariable2.3 mphClear
1:00 AM40.0 °F31.0 °F59 %29.65 in19.0 miNorth (10°)2.3 mphOvercast
1:20 AM39.2 °F32.0 °F75 %29.59 in6.2 miCalmOvercast
1:50 AM39.2 °F32.0 °F75 %29.59 in6.2 miVariable2.3 mphOvercast
2:50 AM39.2 °F32.0 °F75 %29.59 in6.2 miVariable1.2 mphOvercast
3:00 AM39.0 °F32.0 °F68 %29.65 inNNW (340°)2.3 mph
3:20 AM39.2 °F32.0 °F75 %29.59 in6.2 miVariable2.3 mphOvercast
3:50 AM37.4 °F32.0 °F81 %29.59 in6.2 miVariable1.2 mphMostly Cloudy
4:20 AM39.2 °F33.8 °F81 %29.59 in6.2 miVariable1.2 mphMostly Cloudy
4:50 AM39.2 °F33.8 °F81 %29.59 in6.2 miVariable2.3 mphMostly Cloudy
5:00 AM38.0 °F33.0 °F76 %29.65 inWest (260°)2.3 mph
5:20 AM39.2 °F32.0 °F75 %29.59 in6.2 miVariable1.2 mphMostly Cloudy
5:50 AM41.0 °F32.0 °F70 %29.59 in6.2 miWSW (250°)4.6 mphMostly Cloudy
6:00 AM39.0 °F32.0 °F67 %29.65 inESE (110°)3.5 mph
6:20 AM39.2 °F32.0 °F75 %29.59 in6.2 miVariable2.3 mphOvercast
6:50 AM39.2 °F32.0 °F75 %29.59 in6.2 miNNE (30°)1.2 mphOvercast
7:00 AM41.0 °F31.0 °F57 %29.65 in25.0 miNorth (350°)2.3 mphOvercast
7:20 AM41.0 °F32.0 °F70 %29.62 in6.2 miCalmOvercast
7:50 AM42.8 °F32.0 °F66 %29.62 in6.2 miSW (220°)8.1 mphRainLight Rain
8:00 AM42.0 °F31.0 °F53 %29.67 inSSW (210°)10.4 mph
8:20 AM42.8 °F32.0 °F66 %29.65 in5.0 miSSW (210°)9.2 mphRainLight Rain
8:50 AM41.0 °F35.6 °F81 %29.65 in5.0 miSSW (210°)13.8 mphRainRain
9:00 AM41.0 °F36.0 °F77 %29.71 inSW (220°)16.1 mph
9:20 AM41.0 °F37.4 °F87 %29.68 in5.0 miSSW (210°)15.0 mphRainRain
9:50 AM39.2 °F37.4 °F93 %29.68 in5.0 miSSW (210°)13.8 mphRainRain
10:20 AM41.0 °F37.4 °F87 %29.71 in6.2 miSSW (210°)11.5 mphRainLight Rain
10:50 AM41.0 °F37.4 °F87 %29.71 in6.2 miSSW (210°)12.7 mphOvercast
11:00 AM42.0 °F37.0 °F75 %29.76 inSW (220°)17.3 mph
11:20 AM42.8 °F37.4 °F81 %29.74 in6.2 miSW (220°)18.4 mphMostly Cloudy
11:50 AM44.6 °F37.4 °F76 %29.74 in6.2 miSSW (210°)19.6 mphMostly Cloudy
12:00 PM44.0 °F37.0 °F68 %29.77 inSSW (210°)18.4 mph
12:20 PM44.6 °F37.4 °F76 %29.74 in6.2 miSSW (210°)17.3 mphRainLight Rain Showers
12:50 PM44.6 °F39.2 °F81 %29.77 in6.2 miSW (220°)12.7 mphMostly Cloudy
1:00 PM47.0 °F38.0 °F61 %29.79 in9.0 miSW (230°)15.0 mphRainLight Rain Showers
1:20 PM48.2 °F37.4 °F66 %29.77 in6.2 miSW (230°)15.0 mphMostly Cloudy
1:50 PM48.2 °F35.6 °F62 %29.77 in6.2 miSSW (210°)13.8 mphMostly Cloudy
2:00 PM47.0 °F33.0 °F46 %29.81 inSSW (210°)11.5 mph
2:20 PM50.0 °F33.8 °F54 %29.77 in6.2 miSouth (190°)9.2 mphScattered Clouds
2:50 PM50.0 °F30.2 °F47 %29.80 in6.2 miWSW (240°)10.4 mphMostly Cloudy
3:00 PM51.0 °F31.0 °F33 %29.81 inSW (220°)12.7 mph
3:20 PM51.8 °F32.0 °F47 %29.80 in6.2 miWest (260°)8.1 mphScattered Clouds
3:50 PM50.0 °F30.2 °F47 %29.80 in6.2 miSW (230°)16.1 mphScattered Clouds
4:20 PM50.0 °F30.2 °F47 %29.80 in6.2 miSW (230°)9.2 mphScattered Clouds
4:50 PM48.2 °F30.2 °F50 %29.80 in6.2 miSW (230°)11.5 mphPartly Cloudy
5:00 PM50.0 °F28.0 °F30 %29.83 inSW (220°)11.5 mph
5:20 PM50.0 °F30.2 °F47 %29.80 in6.2 miSW (220°)11.5 mphPartly Cloudy
5:50 PM50.0 °F28.4 °F43 %29.83 in6.2 miSW (220°)12.7 mphPartly Cloudy
6:00 PM49.0 °F28.0 °F31 %29.84 inSSW (200°)12.7 mph
6:20 PM48.2 °F30.2 °F50 %29.83 in6.2 miSW (230°)11.5 mphMostly Cloudy
6:50 PM46.4 °F32.0 °F57 %29.86 in6.2 miWNW (290°)13.8 mph29.9 mphRainLight Rain Showers
7:00 PM39.0 °F34.0 °F75 %29.93 in47.0 miNW (320°)10.4 mphScattered Clouds
7:20 PM39.2 °F35.6 °F87 %29.86 in6.2 miSSE (150°)4.6 mphPartly Cloudy
7:50 PM39.2 °F35.6 °F87 %29.89 in6.2 miSouth (180°)5.8 mphScattered Clouds
8:00 PM39.0 °F35.0 °F81 %29.93 inWSW (240°)3.5 mph
8:20 PM41.0 °F33.8 °F76 %29.89 in6.2 miVariable4.6 mphScattered Clouds
8:50 PM42.8 °F30.2 °F61 %29.92 in6.2 miSSW (200°)6.9 mphMostly Cloudy
9:00 PM44.0 °F30.0 °F45 %29.96 inWest (260°)5.8 mph
9:20 PM46.4 °F28.4 °F50 %29.92 in6.2 miSouth (190°)8.1 mphMostly Cloudy
9:50 PM46.4 °F28.4 °F50 %29.92 in6.2 miWest (280°)12.7 mphScattered Clouds
10:20 PM46.4 °F26.6 °F46 %29.95 in6.2 miWNW (290°)12.7 mphRainLight Rain Showers
10:50 PM41.0 °F32.0 °F70 %29.98 in6.2 miVariable4.6 mphScattered Clouds
11:00 PM42.0 °F31.0 °F54 %30.01 inESE (120°)3.5 mph
11:20 PM41.0 °F32.0 °F70 %29.98 in6.2 miVariable6.9 mphScattered Clouds
11:50 PM42.8 °F30.2 °F61 %29.98 in6.2 miVariable3.5 mphScattered Clouds
Hourly data recorded from LSGG, located miles away from Geneva, Switzerland







STORIES FROM OUR PARTNERS